PEGASUS DEB, 39315

Orbit data source: Space-Track

PEGASUS DEB, 39315 is space debris in LEO originally from a launch on Thu, 19 May 1994 UTC launched from the Air Force Western Test Range (AFWTR). Debris objects in space refer to the collection of defunct objects orbiting the Earth. Examples of debris include non-operational satellites, rocket bodies, and fragments generated from explosions, collisions, or faulty payload assembly.

Loading next visibility...
Identifier
39315, 1994-029AFA
Orbit
LEO
Country
Flag of USUS
Related business
Manufacturer
Unknown
Mission
Spacecraft
Bus & Motor
Unknown
Mass
Unknown
Launch date (UTC)
1994-05-19 (32 years ago)
Launch vehicle
Unknown
Launch site
Air Force Western Test Range (AFWTR)
Object type
Payload
Rocket body
Debris
Shape & HBR
Unknown shape, 0.1 m
Radar Cross Section
Small (<0.1 m²)

Expand to show TLE details & history
Last TLE update: 2 days ago

TLE from 2 days ago
0 PEGASUS DEB
1 39315U 94029AFA 26173.55860939  .00000925  00000-0  27314-3 0  9995
2 39315  81.4987 280.3840 0384764   8.4812 352.2612 14.07462561663181
Epoch: 2026-06-22T13:24Z
TLE epoch observation values (Epoch: 2026-06-22T13:24:23.851Z)
Latitude
-0.00008°
Longitude
168.54181°
Altitude
594.858 km
Speed
7.705 km/s
True Right ascension
18h 41m 32s
True Declination
0° 00' 00"
Sunlit
Object was in full shadow at epoch
Visualization orbit readout
Latitude
Unknown
Longitude
Unknown
Altitude
Unknown
Speed
Unknown
Apparent Right ascension
Unknown
Apparent Declination
Unknown
Sunlit
N/A
Visualization observer readout
Local Sidereal Time
13:07:02
Azimuth
Unknown
Elevation
Unknown
Doppler factor
Unknown
Orbital elements
Apogee altitude
1,143.926 km
Perigee altitude
586.529 km
Semi-major axis
7,243.364 km
Eccentricity
0.03848
Inclination
81.4987°
RAAN
280.384°
Arg. of periapsis
8.4812°
True anomaly
351.63785°
Mean anomaly
352.2612°
Eccentric anomaly
351.95258°
Mean motion
3.52073 °/min
Orbital period
102.25 mins
BSTAR
0.00027314
Loading maneuver chart data...
Computing Atmospheric mass density...

Documentation

Showing up to 5 results
|